| time (UTC) | temp C | wind direction | speed KPH | gust KPH | rain 1hr cm | rain 24hr cm | rain mn cm | humidity % | barometer mb |
| 20260831124848 | 20 | 356 | 6.4 | 8.0 | 0.13 | 0.97 | 0.97 | 92 | 1015.8 |
| 20260831124344 | 20 | 9 | 1.6 | 1.6 | 0.43 | 0.97 | 0.97 | 92 | 1016.0 |
| 20260831123839 | 20 | 265 | 4.8 | 3.2 | 1.68 | 0.94 | 0.94 | 91 | 1016.2 |
| 20260831123338 | 20 | 7 | 6.4 | 11.3 | 3.96 | 0.89 | 0.89 | 90 | 1015.9 |
| 20260831122833 | 20 | 12 | 9.7 | 16.1 | 2.87 | 0.66 | 0.66 | 89 | 1016.1 |
| 20260831122329 | 21 | 2 | 8.0 | 11.3 | 0.43 | 0.25 | 0.25 | 88 | 1016.2 |
| 20260831121828 | 21 | 306 | 6.4 | 9.7 | 0.18 | 0.18 | 0.18 | 87 | 1016.3 |
| 20260831121324 | 21 | 295 | 6.4 | 9.7 | 0.18 | 0.18 | 0.18 | 87 | 1015.8 |
| 20260831120820 | 21 | 294 | 6.4 | 9.7 | 0.00 | 0.15 | 0.15 | 87 | 1016.3 |
| 20260831120314 | 21 | 293 | 8.0 | 9.7 | 0.00 | 0.15 | 0.15 | 87 | 1015.8 |
| 20260831115809 | 21 | 283 | 4.8 | 8.0 | 0.00 | 0.15 | 0.15 | 87 | 1015.5 |
| 20260831115306 | 21 | 295 | 1.6 | 3.2 | 0.00 | 0.15 | 0.15 | 87 | 1015.9 |
| 20260831114805 | 21 | 16 | 8.0 | 11.3 | 0.48 | 0.15 | 0.15 | 85 | 1015.7 |
| 20260831114304 | 21 | 289 | 11.3 | 14.5 | 0.89 | 0.15 | 0.15 | 84 | 1015.6 |
| 20260831113800 | 23 | 303 | 4.8 | 4.8 | 0.43 | 0.08 | 0.08 | 79 | 1015.5 |
| 20260831113259 | 25 | 265 | 6.4 | 11.3 | 0.00 | 0.00 | 0.00 | 69 | 1015.2 |
| 20260831112754 | 25 | 284 | 8.0 | 12.9 | 0.00 | 0.00 | 0.00 | 62 | 1015.0 |
| 20260831112249 | 25 | 245 | 3.2 | 3.2 | 0.00 | 0.00 | 0.00 | 61 | 1014.6 |
| 20260831111744 | 26 | 265 | 4.8 | 4.8 | 0.00 | 0.00 | 0.00 | 61 | 1014.3 |
| 20260831111241 | 28 | 291 | 16.1 | 22.5 | 0.00 | 0.00 | 0.00 | 54 | 1014.2 |
| 20260831110737 | 27 | 135 | 1.6 | 1.6 | 0.00 | 0.00 | 0.00 | 48 | 1013.6 |
| 20260831110231 | 27 | 134 | 1.6 | 1.6 | 0.00 | 0.00 | 0.00 | 48 | 1013.3 |
| 20260831105730 | 27 | 128 | 0.0 | 0.0 | 0.00 | 0.00 | 0.00 | 49 | 1013.4 |
| 20260831105226 | 27 | 128 | 0.0 | 0.0 | 0.00 | 0.00 | 0.00 | 48 | 1013.2 |
| 20260831104720 | 27 | 128 | 0.0 | 0.0 | 0.00 | 0.00 | 0.00 | 48 | 1012.8 |
| 20260831104218 | 27 | 128 | 0.0 | 0.0 | 0.00 | 0.00 | 0.00 | 48 | 1012.8 |
| 20260831103717 | 27 | 126 | 0.0 | 0.0 | 0.00 | 0.00 | 0.00 | 48 | 1012.9 |
| 20260831103213 | 27 | 121 | 0.0 | 0.0 | 0.00 | 0.00 | 0.00 | 49 | 1012.7 |
| 20260831102712 | 27 | 82 | 0.0 | 0.0 | 0.00 | 0.00 | 0.00 | 50 | 1012.8 |
| 20260831102207 | 27 | 82 | 1.6 | 1.6 | 0.00 | 0.00 | 0.00 | 50 | 1012.9 |
| 20260831101703 | 27 | 82 | 0.0 | 0.0 | 0.00 | 0.00 | 0.00 | 52 | 1012.7 |
| 20260831101158 | 27 | 82 | 1.6 | 1.6 | 0.00 | 0.00 | 0.00 | 52 | 1013.0 |
| 20260831100654 | 27 | 81 | 0.0 | 0.0 | 0.00 | 0.00 | 0.00 | 52 | 1013.0 |
| 20260831100150 | 27 | 81 | 1.6 | 1.6 | 0.00 | 0.00 | 0.00 | 53 | 1012.9 |
| 20260831095648 | 27 | 81 | 1.6 | 1.6 | 0.00 | 0.00 | 0.00 | 53 | 1012.7 |
| 20260831095143 | 27 | 83 | 0.0 | 1.6 | 0.00 | 0.00 | 0.00 | 51 | 1012.6 |
| 20260831094638 | 27 | 61 | 0.0 | 0.0 | 0.00 | 0.00 | 0.00 | 51 | 1012.6 |
| 20260831094135 | 27 | 61 | 0.0 | 0.0 | 0.00 | 0.00 | 0.00 | 51 | 1012.7 |
| 20260831093630 | 27 | 61 | 0.0 | 0.0 | 0.00 | 0.00 | 0.00 | 51 | 1012.6 |
| 20260831093126 | 27 | 61 | 0.0 | 0.0 | 0.00 | 0.00 | 0.00 | 50 | 1012.8 |
| 20260831092622 | 27 | 47 | 0.0 | 0.0 | 0.00 | 0.00 | 0.00 | 50 | 1012.5 |
| 20260831092117 | 27 | 47 | 0.0 | 0.0 | 0.00 | 0.00 | 0.00 | 50 | 1012.4 |
| 20260831091616 | 27 | 46 | 0.0 | 0.0 | 0.00 | 0.00 | 0.00 | 51 | 1012.5 |
| 20260831091112 | 27 | 46 | 0.0 | 0.0 | 0.00 | 0.00 | 0.00 | 51 | 1012.5 |
| 20260831090608 | 27 | 46 | 0.0 | 0.0 | 0.00 | 0.00 | 0.00 | 50 | 1012.5 |
| 20260831090104 | 27 | 46 | 0.0 | 0.0 | 0.00 | 0.00 | 0.00 | 50 | 1012.8 |
| 20260831085559 | 27 | 327 | 0.0 | 0.0 | 0.00 | 0.00 | 0.00 | 50 | 1012.7 |
| 20260831085054 | 27 | 327 | 0.0 | 0.0 | 0.00 | 0.00 | 0.00 | 50 | 1012.7 |
| 20260831084550 | 27 | 327 | 0.0 | 0.0 | 0.00 | 0.00 | 0.00 | 50 | 1012.5 |
| 20260831084046 | 27 | 327 | 0.0 | 0.0 | 0.00 | 0.00 | 0.00 | 51 | 1012.7 |
| 20260831083542 | 27 | 326 | 0.0 | 0.0 | 0.00 | 0.00 | 0.00 | 50 | 1012.5 |
| 20260831083036 | 28 | 327 | 0.0 | 0.0 | 0.00 | 0.00 | 0.00 | 49 | 1012.7 |
| 20260831082530 | 28 | 327 | 0.0 | 0.0 | 0.00 | 0.00 | 0.00 | 48 | 1012.5 |
| 20260831082025 | 28 | 327 | 0.0 | 0.0 | 0.00 | 0.00 | 0.00 | 48 | 1012.7 |
| 20260831081521 | 28 | 327 | 0.0 | 0.0 | 0.00 | 0.00 | 0.00 | 47 | 1012.8 |
| 20260831081016 | 28 | 327 | 0.0 | 0.0 | 0.00 | 0.00 | 0.00 | 47 | 1012.9 |
| 20260831080510 | 28 | 327 | 0.0 | 0.0 | 0.00 | 0.00 | 0.00 | 46 | 1012.7 |
| 20260831080006 | 28 | 327 | 0.0 | 0.0 | 0.00 | 0.00 | 0.00 | 46 | 1012.9 |
| 20260831075501 | 28 | 326 | 0.0 | 0.0 | 0.00 | 0.00 | 0.00 | 47 | 1012.8 |
| 20260831074957 | 28 | 326 | 0.0 | 0.0 | 0.00 | 0.00 | 0.00 | 47 | 1013.0 |
| 20260831074456 | 28 | 326 | 0.0 | 0.0 | 0.00 | 0.00 | 0.00 | 46 | 1012.9 |
| 20260831073951 | 29 | 326 | 0.0 | 0.0 | 0.00 | 0.00 | 0.00 | 46 | 1012.9 |
| 20260831073450 | 29 | 326 | 0.0 | 0.0 | 0.00 | 0.00 | 0.00 | 45 | 1013.0 |
| 20260831072949 | 29 | 254 | 0.0 | 0.0 | 0.00 | 0.00 | 0.00 | 45 | 1012.8 |
| 20260831072446 | 30 | 254 | 0.0 | 0.0 | 0.00 | 0.00 | 0.00 | 44 | 1013.0 |
| 20260831071942 | 30 | 254 | 0.0 | 0.0 | 0.00 | 0.00 | 0.00 | 44 | 1013.1 |
| 20260831071441 | 30 | 253 | 0.0 | 0.0 | 0.00 | 0.00 | 0.00 | 44 | 1013.0 |
| 20260831070936 | 30 | 251 | 0.0 | 0.0 | 0.00 | 0.00 | 0.00 | 43 | 1013.0 |
| 20260831070435 | 30 | 236 | 1.6 | 1.6 | 0.00 | 0.00 | 0.00 | 43 | 1013.2 |
| 20260831065935 | 30 | 229 | 1.6 | 1.6 | 0.00 | 0.00 | 0.00 | 43 | 1013.2 |
| 20260831065433 | 30 | 254 | 0.0 | 0.0 | 0.00 | 0.00 | 0.00 | 44 | 1013.0 |
| 20260831064928 | 30 | 281 | 1.6 | 1.6 | 0.00 | 0.00 | 0.00 | 43 | 1013.2 |
| 20260831064423 | 30 | 291 | 0.0 | 0.0 | 0.00 | 0.00 | 0.00 | 43 | 1013.2 |
| 20260831063919 | 30 | 291 | 1.6 | 0.0 | 0.00 | 0.00 | 0.00 | 43 | 1013.0 |
| 20260831063414 | 30 | 291 | 0.0 | 0.0 | 0.00 | 0.00 | 0.00 | 44 | 1013.1 |
| 20260831062908 | 30 | 291 | 0.0 | 0.0 | 0.00 | 0.00 | 0.00 | 43 | 1013.1 |
| 20260831062403 | 30 | 292 | 0.0 | 0.0 | 0.00 | 0.00 | 0.00 | 43 | 1013.0 |
| 20260831061902 | 30 | 292 | 0.0 | 0.0 | 0.00 | 0.00 | 0.00 | 42 | 1013.3 |
| 20260831061401 | 30 | 289 | 0.0 | 0.0 | 0.00 | 0.00 | 0.00 | 42 | 1013.2 |
| 20260831060857 | 30 | 288 | 0.0 | 0.0 | 0.00 | 0.00 | 0.00 | 42 | 1013.3 |
| 20260831060352 | 30 | 288 | 0.0 | 1.6 | 0.00 | 0.00 | 0.00 | 42 | 1013.1 |
| 20260831055851 | 30 | 282 | 1.6 | 1.6 | 0.00 | 0.00 | 0.00 | 42 | 1013.4 |
| 20260831055346 | 30 | 282 | 1.6 | 1.6 | 0.00 | 0.00 | 0.00 | 42 | 1013.1 |
| 20260831054842 | 30 | 283 | 0.0 | 0.0 | 0.00 | 0.00 | 0.00 | 41 | 1013.2 |
| 20260831054337 | 30 | 281 | 1.6 | 3.2 | 0.00 | 0.00 | 0.00 | 41 | 1013.1 |
| 20260831053836 | 30 | 235 | 0.0 | 0.0 | 0.00 | 0.00 | 0.00 | 41 | 1013.0 |
| 20260831053334 | 31 | 267 | 1.6 | 1.6 | 0.00 | 0.00 | 0.00 | 40 | 1013.2 |
| 20260831052829 | 31 | 290 | 1.6 | 1.6 | 0.00 | 0.00 | 0.00 | 40 | 1013.1 |
| 20260831052329 | 31 | 285 | 0.0 | 0.0 | 0.00 | 0.00 | 0.00 | 40 | 1012.9 |
| 20260831051827 | 31 | 271 | 3.2 | 3.2 | 0.00 | 0.00 | 0.00 | 40 | 1012.8 |
| 20260831051325 | 31 | 282 | 3.2 | 3.2 | 0.00 | 0.00 | 0.00 | 40 | 1012.9 |
| 20260831050821 | 31 | 297 | 1.6 | 3.2 | 0.00 | 0.00 | 0.00 | 40 | 1012.7 |
| 20260831050319 | 31 | 10 | 1.6 | 1.6 | 0.00 | 0.00 | 0.00 | 40 | 1012.8 |
| 20260831045814 | 31 | 345 | 1.6 | 1.6 | 0.00 | 0.00 | 0.00 | 40 | 1012.7 |
| 20260831045308 | 31 | 291 | 1.6 | 3.2 | 0.00 | 0.00 | 0.00 | 39 | 1012.8 |
| 20260831044803 | 31 | 318 | 0.0 | 1.6 | 0.00 | 0.00 | 0.00 | 39 | 1012.7 |
| 20260831044258 | 31 | 301 | 3.2 | 3.2 | 0.00 | 0.00 | 0.00 | 39 | 1012.7 |
| 20260831043754 | 31 | 289 | 4.8 | 8.0 | 0.00 | 0.00 | 0.00 | 39 | 1012.8 |
| 20260831043254 | 31 | 345 | 1.6 | 3.2 | 0.00 | 0.00 | 0.00 | 39 | 1012.7 |
| 20260831042749 | 31 | 351 | 4.8 | 8.0 | 0.00 | 0.00 | 0.00 | 39 | 1012.7 |
| 20260831042243 | 31 | 231 | 1.6 | 3.2 | 0.00 | 0.00 | 0.00 | 39 | 1012.9 |
| 20260831041739 | 31 | 306 | 3.2 | 4.8 | 0.00 | 0.00 | 0.00 | 39 | 1012.8 |
| 20260831041238 | 31 | 292 | 6.4 | 9.7 | 0.00 | 0.00 | 0.00 | 39 | 1012.7 |
| 20260831040733 | 31 | 299 | 1.6 | 4.8 | 0.00 | 0.00 | 0.00 | 39 | 1012.5 |
| 20260831040232 | 31 | 18 | 1.6 | 1.6 | 0.00 | 0.00 | 0.00 | 38 | 1012.6 |
| 20260831035731 | 31 | 4 | 4.8 | 9.7 | 0.00 | 0.00 | 0.00 | 38 | 1012.2 |
| 20260831035230 | 31 | 322 | 1.6 | 1.6 | 0.00 | 0.00 | 0.00 | 38 | 1012.2 |
| 20260831034729 | 31 | 275 | 1.6 | 3.2 | 0.00 | 0.00 | 0.00 | 38 | 1012.4 |
| 20260831034225 | 31 | 359 | 6.4 | 9.7 | 0.00 | 0.00 | 0.00 | 38 | 1012.4 |
| 20260831033720 | 31 | 286 | 4.8 | 9.7 | 0.00 | 0.00 | 0.00 | 37 | 1011.9 |
| 20260831033220 | 32 | 302 | 6.4 | 9.7 | 0.00 | 0.00 | 0.00 | 37 | 1012.2 |
| 20260831032716 | 32 | 330 | 4.8 | 4.8 | 0.00 | 0.00 | 0.00 | 37 | 1012.1 |
| 20260831032211 | 32 | 285 | 6.4 | 9.7 | 0.00 | 0.00 | 0.00 | 37 | 1011.9 |
| 20260831031710 | 32 | 317 | 3.2 | 3.2 | 0.00 | 0.00 | 0.00 | 37 | 1011.7 |
| 20260831031205 | 32 | 279 | 1.6 | 3.2 | 0.00 | 0.00 | 0.00 | 37 | 1011.8 |
| 20260831030704 | 32 | 303 | 6.4 | 9.7 | 0.00 | 0.00 | 0.00 | 37 | 1011.6 |
| 20260831030203 | 32 | 323 | 4.8 | 4.8 | 0.00 | 0.00 | 0.00 | 36 | 1011.5 |
| 20260831025701 | 33 | 311 | 9.7 | 11.3 | 0.00 | 0.00 | 0.00 | 35 | 1011.3 |
| 20260831025156 | 33 | 13 | 9.7 | 11.3 | 0.00 | 0.00 | 0.00 | 35 | 1011.3 |
| 20260831024653 | 34 | 305 | 6.4 | 9.7 | 0.00 | 0.00 | 0.00 | 34 | 1010.7 |
| 20260831024151 | 34 | 20 | 4.8 | 8.0 | 0.00 | 0.00 | 0.00 | 33 | 1010.7 |
| 20260831023650 | 34 | 307 | 4.8 | 8.0 | 0.00 | 0.00 | 0.00 | 33 | 1010.5 |
| 20260831023149 | 35 | 283 | 3.2 | 3.2 | 0.00 | 0.00 | 0.00 | 32 | 1010.3 |
| 20260831022645 | 35 | 296 | 3.2 | 1.6 | 0.00 | 0.00 | 0.00 | 32 | 1010.1 |
| 20260831022140 | 35 | 311 | 3.2 | 8.0 | 0.00 | 0.00 | 0.00 | 31 | 1010.3 |
| 20260831021639 | 35 | 262 | 3.2 | 3.2 | 0.00 | 0.00 | 0.00 | 31 | 1010.1 |
| 20260831021134 | 35 | 282 | 1.6 | 3.2 | 0.00 | 0.00 | 0.00 | 31 | 1010.2 |
| 20260831020630 | 35 | 283 | 1.6 | 3.2 | 0.00 | 0.00 | 0.00 | 31 | 1010.1 |
| 20260831020125 | 35 | 303 | 3.2 | 3.2 | 0.00 | 0.00 | 0.00 | 31 | 1010.1 |
| 20260831015621 | 35 | 283 | 1.6 | 1.6 | 0.00 | 0.00 | 0.00 | 30 | 1009.9 |
| 20260831015120 | 35 | 318 | 1.6 | 3.2 | 0.00 | 0.00 | 0.00 | 30 | 1010.0 |
| 20260831014615 | 35 | 299 | 4.8 | 4.8 | 0.00 | 0.00 | 0.00 | 30 | 1010.0 |
| 20260831014110 | 35 | 289 | 4.8 | 3.2 | 0.00 | 0.00 | 0.00 | 29 | 1009.7 |
| 20260831013607 | 35 | 289 | 3.2 | 4.8 | 0.00 | 0.00 | 0.00 | 29 | 1009.8 |
| 20260831013106 | 35 | 311 | 4.8 | 8.0 | 0.00 | 0.00 | 0.00 | 29 | 1009.9 |
| 20260831012606 | 35 | 300 | 3.2 | 4.8 | 0.00 | 0.00 | 0.00 | 29 | 1009.9 |
| 20260831012101 | 35 | 311 | 3.2 | 4.8 | 0.00 | 0.00 | 0.00 | 29 | 1009.8 |
| 20260831011600 | 35 | 304 | 3.2 | 3.2 | 0.00 | 0.00 | 0.00 | 29 | 1009.7 |
| 20260831011056 | 35 | 308 | 1.6 | 1.6 | 0.00 | 0.00 | 0.00 | 29 | 1009.8 |
| 20260831010551 | 35 | 259 | 1.6 | 3.2 | 0.00 | 0.00 | 0.00 | 29 | 1009.8 |
| 20260831010048 | 35 | 304 | 3.2 | 3.2 | 0.00 | 0.00 | 0.00 | 29 | 1009.8 |
| 20260831005542 | 36 | 309 | 1.6 | 3.2 | 0.00 | 0.00 | 0.00 | 29 | 1009.6 |
| 20260831005042 | 36 | 300 | 0.0 | 0.0 | 0.00 | 0.00 | 0.00 | 29 | 1009.7 |
| 20260831004538 | 36 | 318 | 4.8 | 8.0 | 0.00 | 0.00 | 0.00 | 28 | 1009.8 |
| 20260831004033 | 36 | 299 | 6.4 | 8.0 | 0.00 | 0.00 | 0.00 | 28 | 1009.5 |
| 20260831003530 | 37 | 302 | 8.0 | 11.3 | 0.00 | 0.00 | 0.00 | 27 | 1009.7 |
| 20260831003025 | 37 | 285 | 1.6 | 1.6 | 0.00 | 0.00 | 0.00 | 27 | 1009.8 |
| 20260831002524 | 37 | 284 | 8.0 | 11.3 | 0.00 | 0.00 | 0.00 | 27 | 1009.7 |
| 20260831002019 | 38 | 238 | 8.0 | 11.3 | 0.00 | 0.00 | 0.00 | 26 | 1009.7 |
| 20260831001515 | 38 | 241 | 4.8 | 4.8 | 0.00 | 0.00 | 0.00 | 26 | 1009.9 |
| 20260831001011 | 38 | 296 | 1.6 | 3.2 | 0.00 | 0.00 | 0.00 | 26 | 1009.7 |
| 20260831000507 | 38 | 301 | 1.6 | 1.6 | 0.00 | 0.00 | 0.00 | 26 | 1009.9 |
| 20260831000006 | 38 | 294 | 3.2 | 3.2 | 0.00 | 0.00 | 0.00 | 26 | 1009.7 |
| 20260830235501 | 38 | 320 | 8.0 | 9.7 | 0.00 | 0.00 | 0.00 | 26 | 1009.8 |
| 20260830234955 | 38 | 289 | 6.4 | 8.0 | 0.00 | 0.00 | 0.00 | 26 | 1009.7 |
| 20260830234450 | 38 | 12 | 1.6 | 1.6 | 0.00 | 0.00 | 0.00 | 26 | 1009.9 |
| 20260830233946 | 38 | 304 | 4.8 | 8.0 | 0.00 | 0.00 | 0.00 | 26 | 1009.7 |
| 20260830233441 | 38 | 339 | 1.6 | 1.6 | 0.00 | 0.00 | 0.00 | 26 | 1009.7 |
| 20260830232937 | 38 | 284 | 4.8 | 4.8 | 0.00 | 0.00 | 0.00 | 26 | 1009.9 |
| 20260830232433 | 38 | 280 | 4.8 | 3.2 | 0.00 | 0.00 | 0.00 | 26 | 1009.9 |
| 20260830231929 | 38 | 355 | 3.2 | 3.2 | 0.00 | 0.00 | 0.00 | 26 | 1010.0 |
| 20260830231424 | 38 | 314 | 6.4 | 8.0 | 0.00 | 0.00 | 0.00 | 26 | 1010.0 |
| 20260830230923 | 38 | 265 | 3.2 | 4.8 | 0.00 | 0.00 | 0.00 | 26 | 1010.1 |
| 20260830230419 | 38 | 281 | 4.8 | 4.8 | 0.00 | 0.00 | 0.00 | 26 | 1010.2 |
| 20260830225918 | 38 | 297 | 3.2 | 3.2 | 0.00 | 0.00 | 0.00 | 27 | 1010.3 |
| 20260830225414 | 39 | 301 | 4.8 | 3.2 | 0.00 | 0.00 | 0.00 | 25 | 1010.3 |
| 20260830224908 | 38 | 245 | 0.0 | 0.0 | 0.00 | 0.00 | 0.00 | 25 | 1010.6 |
| 20260830224407 | 38 | 277 | 3.2 | 1.6 | 0.00 | 0.00 | 0.00 | 25 | 1010.4 |
| 20260830223904 | 38 | 281 | 3.2 | 3.2 | 0.00 | 0.00 | 0.00 | 27 | 1010.7 |
| 20260830223400 | 38 | 333 | 4.8 | 8.0 | 0.00 | 0.00 | 0.00 | 26 | 1010.7 |
| 20260830222859 | 38 | 287 | 9.7 | 11.3 | 0.00 | 0.00 | 0.00 | 25 | 1011.1 |
| 20260830222355 | 38 | 303 | 4.8 | 8.0 | 0.00 | 0.00 | 0.00 | 26 | 1010.7 |
| 20260830221850 | 38 | 279 | 0.0 | 0.0 | 0.00 | 0.00 | 0.00 | 26 | 1011.1 |
| 20260830221347 | 38 | 7 | 4.8 | 4.8 | 0.00 | 0.00 | 0.00 | 26 | 1010.9 |
| 20260830220842 | 38 | 300 | 4.8 | 4.8 | 0.00 | 0.00 | 0.00 | 27 | 1011.4 |
| 20260830220342 | 38 | 271 | 4.8 | 4.8 | 0.00 | 0.00 | 0.00 | 27 | 1011.4 |
| 20260830215839 | 37 | 296 | 8.0 | 9.7 | 0.00 | 0.00 | 0.00 | 27 | 1011.4 |
| 20260830215339 | 37 | 270 | 3.2 | 3.2 | 0.00 | 0.00 | 0.00 | 28 | 1011.3 |
| 20260830214834 | 37 | 206 | 1.6 | 1.6 | 0.00 | 0.00 | 0.00 | 28 | 1011.5 |
| 20260830214330 | 37 | 292 | 4.8 | 8.0 | 0.00 | 0.00 | 0.00 | 28 | 1011.8 |
| 20260830213829 | 38 | 313 | 3.2 | 3.2 | 0.00 | 0.00 | 0.00 | 27 | 1011.6 |
| 20260830213324 | 38 | 274 | 6.4 | 8.0 | 0.00 | 0.00 | 0.00 | 27 | 1011.7 |
| 20260830212820 | 38 | 190 | 0.0 | 0.0 | 0.00 | 0.00 | 0.00 | 26 | 1011.8 |
| 20260830212316 | 38 | 287 | 4.8 | 4.8 | 0.00 | 0.00 | 0.00 | 26 | 1011.9 |
| 20260830211814 | 38 | 276 | 6.4 | 8.0 | 0.00 | 0.00 | 0.00 | 26 | 1011.8 |
| 20260830211309 | 38 | 354 | 4.8 | 4.8 | 0.00 | 0.00 | 0.00 | 26 | 1011.9 |
| 20260830210805 | 38 | 231 | 3.2 | 3.2 | 0.00 | 0.00 | 0.00 | 26 | 1012.0 |
| 20260830210304 | 38 | 307 | 1.6 | 1.6 | 0.00 | 0.00 | 0.00 | 26 | 1012.4 |
| 20260830205802 | 37 | 317 | 3.2 | 4.8 | 0.00 | 0.00 | 0.00 | 26 | 1012.4 |
| 20260830205305 | 37 | 140 | 1.6 | 3.2 | 0.00 | 0.00 | 0.00 | 26 | 1012.5 |
| 20260830204757 | 38 | 208 | 1.6 | 1.6 | 0.00 | 0.00 | 0.00 | 26 | 1012.7 |
| 20260830204256 | 38 | 282 | 4.8 | 4.8 | 0.00 | 0.00 | 0.00 | 26 | 1012.8 |
| 20260830203752 | 37 | 46 | 3.2 | 3.2 | 0.00 | 0.00 | 0.00 | 26 | 1012.9 |
| 20260830203248 | 37 | 61 | 1.6 | 1.6 | 0.00 | 0.00 | 0.00 | 26 | 1013.1 |
| 20260830202747 | 37 | 170 | 1.6 | 1.6 | 0.00 | 0.00 | 0.00 | 27 | 1013.0 |
| 20260830202243 | 37 | 266 | 3.2 | 3.2 | 0.00 | 0.00 | 0.00 | 27 | 1013.4 |
| 20260830201742 | 37 | 255 | 3.2 | 3.2 | 0.00 | 0.00 | 0.00 | 27 | 1013.3 |
| 20260830201237 | 37 | 352 | 4.8 | 8.0 | 0.00 | 0.00 | 0.00 | 28 | 1013.5 |
| 20260830200733 | 37 | 58 | 3.2 | 3.2 | 0.00 | 0.00 | 0.00 | 27 | 1013.4 |
| 20260830200232 | 37 | 289 | 4.8 | 4.8 | 0.00 | 0.00 | 0.00 | 28 | 1013.5 |
| 20260830195727 | 37 | 277 | 4.8 | 4.8 | 0.00 | 0.00 | 0.00 | 28 | 1013.5 |
| 20260830195226 | 37 | 243 | 4.8 | 3.2 | 0.00 | 0.00 | 0.00 | 29 | 1013.9 |
| 20260830194724 | 36 | 39 | 3.2 | 3.2 | 0.00 | 0.00 | 0.00 | 29 | 1013.6 |
| 20260830194219 | 36 | 303 | 3.2 | 4.8 | 0.00 | 0.00 | 0.00 | 29 | 1013.5 |
| 20260830193714 | 36 | 235 | 6.4 | 8.0 | 0.00 | 0.00 | 0.00 | 30 | 1014.1 |
| 20260830193208 | 37 | 308 | 3.2 | 3.2 | 0.00 | 0.00 | 0.00 | 30 | 1013.9 |
| 20260830192704 | 36 | 261 | 1.6 | 1.6 | 0.00 | 0.00 | 0.00 | 30 | 1014.1 |
| 20260830192159 | 36 | 138 | 4.8 | 8.0 | 0.00 | 0.00 | 0.00 | 29 | 1014.1 |
| 20260830191655 | 36 | 6 | 4.8 | 4.8 | 0.00 | 0.00 | 0.00 | 31 | 1014.2 |
| 20260830191149 | 35 | 148 | 3.2 | 3.2 | 0.00 | 0.00 | 0.00 | 31 | 1014.4 |
| 20260830190644 | 35 | 293 | 4.8 | 4.8 | 0.00 | 0.00 | 0.00 | 32 | 1014.3 |
| 20260830190139 | 35 | 251 | 11.3 | 11.3 | 0.00 | 0.00 | 0.00 | 31 | 1014.5 |
| 20260830185638 | 36 | 239 | 8.0 | 11.3 | 0.00 | 0.00 | 0.00 | 31 | 1014.6 |
| 20260830185134 | 36 | 214 | 9.7 | 14.5 | 0.00 | 0.00 | 0.00 | 31 | 1014.5 |
| 20260830184633 | 36 | 289 | 1.6 | 3.2 | 0.00 | 0.00 | 0.00 | 31 | 1014.6 |
| 20260830184128 | 35 | 277 | 3.2 | 4.8 | 0.00 | 0.00 | 0.00 | 32 | 1014.6 |
| 20260830183628 | 35 | 238 | 6.4 | 8.0 | 0.00 | 0.00 | 0.00 | 33 | 1014.6 |
| 20260830183123 | 35 | 130 | 4.8 | 8.0 | 0.00 | 0.00 | 0.00 | 32 | 1014.9 |
| 20260830182619 | 35 | 198 | 3.2 | 3.2 | 0.00 | 0.00 | 0.00 | 34 | 1014.9 |
| 20260830182115 | 35 | 114 | 3.2 | 3.2 | 0.00 | 0.00 | 0.00 | 34 | 1015.2 |
| 20260830181611 | 35 | 125 | 8.0 | 9.7 | 0.00 | 0.00 | 0.00 | 33 | 1015.0 |
| 20260830181110 | 35 | 176 | 1.6 | 1.6 | 0.00 | 0.00 | 0.00 | 33 | 1015.3 |
| 20260830180609 | 35 | 72 | 3.2 | 1.6 | 0.00 | 0.00 | 0.00 | 34 | 1015.2 |
| 20260830180109 | 35 | 134 | 4.8 | 4.8 | 0.00 | 0.00 | 0.00 | 34 | 1015.2 |
| 20260830175608 | 35 | 138 | 1.6 | 1.6 | 0.00 | 0.00 | 0.00 | 34 | 1015.3 |
| 20260830175104 | 35 | 167 | 1.6 | 1.6 | 0.00 | 0.00 | 0.00 | 34 | 1015.0 |
| 20260830174559 | 35 | 181 | 3.2 | 3.2 | 0.00 | 0.00 | 0.00 | 34 | 1015.2 |
| 20260830174054 | 35 | 213 | 1.6 | 1.6 | 0.00 | 0.00 | 0.00 | 35 | 1015.3 |
| 20260830173549 | 34 | 98 | 1.6 | 1.6 | 0.00 | 0.00 | 0.00 | 34 | 1015.3 |
| 20260830173044 | 33 | 111 | 6.4 | 8.0 | 0.00 | 0.00 | 0.00 | 35 | 1015.5 |
| 20260830172541 | 33 | 117 | 1.6 | 1.6 | 0.00 | 0.00 | 0.00 | 36 | 1015.5 |
| 20260830172037 | 33 | 153 | 1.6 | 1.6 | 0.00 | 0.00 | 0.00 | 37 | 1015.5 |
| 20260830171532 | 33 | 136 | 3.2 | 3.2 | 0.00 | 0.00 | 0.00 | 36 | 1015.7 |
| 20260830171032 | 33 | 113 | 0.0 | 0.0 | 0.00 | 0.00 | 0.00 | 38 | 1015.7 |
| 20260830170526 | 32 | 104 | 4.8 | 4.8 | 0.00 | 0.00 | 0.00 | 38 | 1015.6 |
| 20260830170026 | 32 | 111 | 3.2 | 3.2 | 0.00 | 0.00 | 0.00 | 38 | 1015.6 |
| 20260830165521 | 33 | 136 | 3.2 | 3.2 | 0.00 | 0.00 | 0.00 | 38 | 1015.5 |
| 20260830165017 | 33 | 150 | 3.2 | 4.8 | 0.00 | 0.00 | 0.00 | 37 | 1015.6 |
| 20260830164513 | 33 | 119 | 1.6 | 1.6 | 0.00 | 0.00 | 0.00 | 37 | 1015.7 |
| 20260830164009 | 33 | 130 | 3.2 | 4.8 | 0.00 | 0.00 | 0.00 | 37 | 1015.5 |
| 20260830163506 | 32 | 158 | 3.2 | 3.2 | 0.00 | 0.00 | 0.00 | 39 | 1015.4 |
| 20260830163004 | 32 | 140 | 4.8 | 4.8 | 0.00 | 0.00 | 0.00 | 39 | 1015.5 |
| 20260830162501 | 32 | 181 | 1.6 | 1.6 | 0.00 | 0.00 | 0.00 | 39 | 1015.8 |
| 20260830162000 | 32 | 184 | 0.0 | 1.6 | 0.00 | 0.00 | 0.00 | 39 | 1015.4 |
| 20260830161455 | 32 | 76 | 3.2 | 3.2 | 0.00 | 0.00 | 0.00 | 40 | 1015.8 |
| 20260830160950 | 31 | 151 | 3.2 | 3.2 | 0.00 | 0.00 | 0.00 | 41 | 1015.6 |
| 20260830160447 | 31 | 161 | 1.6 | 1.6 | 0.00 | 0.00 | 0.00 | 42 | 1015.8 |
| 20260830155941 | 31 | 174 | 3.2 | 4.8 | 0.00 | 0.00 | 0.00 | 41 | 1015.9 |
| 20260830155438 | 31 | 126 | 1.6 | 1.6 | 0.00 | 0.00 | 0.00 | 42 | 1015.9 |
| 20260830154932 | 31 | 167 | 3.2 | 3.2 | 0.00 | 0.00 | 0.00 | 43 | 1015.7 |
| 20260830154428 | 31 | 127 | 1.6 | 1.6 | 0.00 | 0.00 | 0.00 | 43 | 1015.8 |
| 20260830153924 | 31 | 188 | 4.8 | 4.8 | 0.00 | 0.00 | 0.00 | 42 | 1015.7 |
| 20260830153420 | 30 | 207 | 4.8 | 4.8 | 0.00 | 0.00 | 0.00 | 43 | 1015.8 |
| 20260830152919 | 30 | 188 | 3.2 | 3.2 | 0.00 | 0.00 | 0.00 | 44 | 1015.8 |
| 20260830152414 | 30 | 217 | 4.8 | 3.2 | 0.00 | 0.00 | 0.00 | 45 | 1015.9 |
| 20260830151908 | 30 | 170 | 1.6 | 1.6 | 0.00 | 0.00 | 0.00 | 44 | 1015.6 |
| 20260830151407 | 30 | 208 | 3.2 | 4.8 | 0.00 | 0.00 | 0.00 | 43 | 1015.5 |
| 20260830150903 | 30 | 145 | 1.6 | 1.6 | 0.00 | 0.00 | 0.00 | 43 | 1015.6 |
| 20260830150402 | 30 | 138 | 0.0 | 0.0 | 0.00 | 0.00 | 0.00 | 45 | 1015.6 |
| 20260830145856 | 30 | 132 | 1.6 | 1.6 | 0.00 | 0.00 | 0.00 | 46 | 1015.9 |
| 20260830145351 | 29 | 102 | 0.0 | 0.0 | 0.00 | 0.00 | 0.00 | 49 | 1015.6 |
| 20260830144846 | 29 | 102 | 0.0 | 0.0 | 0.00 | 0.00 | 0.00 | 48 | 1015.8 |
| 20260830144343 | 28 | 102 | 0.0 | 0.0 | 0.00 | 0.00 | 0.00 | 50 | 1015.7 |
| 20260830143838 | 28 | 102 | 0.0 | 0.0 | 0.00 | 0.00 | 0.00 | 50 | 1015.7 |
| 20260830143338 | 28 | 102 | 0.0 | 0.0 | 0.00 | 0.00 | 0.00 | 50 | 1015.7 |
| 20260830142832 | 28 | 102 | 0.0 | 0.0 | 0.00 | 0.00 | 0.00 | 51 | 1015.9 |
| 20260830142327 | 28 | 102 | 0.0 | 0.0 | 0.00 | 0.00 | 0.00 | 50 | 1015.7 |
| 20260830141822 | 28 | 102 | 0.0 | 0.0 | 0.00 | 0.00 | 0.00 | 50 | 1015.7 |
| 20260830141317 | 27 | 102 | 0.0 | 0.0 | 0.00 | 0.00 | 0.00 | 52 | 1015.9 |
| 20260830140812 | 27 | 103 | 0.0 | 0.0 | 0.00 | 0.00 | 0.00 | 53 | 1015.7 |
| 20260830140307 | 27 | 103 | 0.0 | 0.0 | 0.00 | 0.00 | 0.00 | 54 | 1015.9 |
| 20260830135801 | 27 | 103 | 0.0 | 0.0 | 0.00 | 0.00 | 0.00 | 53 | 1016.0 |
| 20260830135257 | 27 | 103 | 0.0 | 0.0 | 0.00 | 0.00 | 0.00 | 54 | 1015.9 |
| 20260830134752 | 27 | 102 | 0.0 | 0.0 | 0.00 | 0.00 | 0.00 | 54 | 1016.0 |
| 20260830134247 | 27 | 102 | 0.0 | 0.0 | 0.00 | 0.00 | 0.00 | 53 | 1015.7 |
| 20260830133743 | 27 | 102 | 0.0 | 0.0 | 0.00 | 0.00 | 0.00 | 52 | 1015.9 |
| 20260830133238 | 27 | 103 | 0.0 | 0.0 | 0.00 | 0.00 | 0.00 | 52 | 1015.9 |
| 20260830132734 | 27 | 103 | 0.0 | 0.0 | 0.00 | 0.00 | 0.00 | 52 | 1016.1 |
| 20260830132229 | 27 | 103 | 0.0 | 0.0 | 0.00 | 0.00 | 0.00 | 53 | 1015.7 |
| 20260830131728 | 27 | 103 | 0.0 | 0.0 | 0.00 | 0.00 | 0.00 | 53 | 1015.8 |
| 20260830131229 | 27 | 103 | 0.0 | 0.0 | 0.00 | 0.00 | 0.00 | 53 | 1015.7 |
| 20260830130724 | 27 | 103 | 0.0 | 0.0 | 0.00 | 0.00 | 0.00 | 52 | 1015.7 |
| 20260830130224 | 27 | 103 | 0.0 | 0.0 | 0.00 | 0.00 | 0.00 | 51 | 1015.7 |
| 20260830125718 | 27 | 103 | 0.0 | 0.0 | 0.00 | 0.00 | 0.00 | 50 | 1015.5 |
| 20260830125213 | 27 | 103 | 0.0 | 0.0 | 0.00 | 0.00 | 0.00 | 50 | 1015.5 |